Weather History for Pecos, TX

Change the Weather History Date:

Monday, November 5, 2012

  Actual Average Record
Temperature  
Mean Temperature 58 °F -  
Max Temperature 75 °F 74 °F 92 °F (1988)
Min Temperature 40 °F 37 °F 18 °F (1991)
Degree Days  
Heating Degree Days 8    
Growing Degree Days 8 (Base 50)    
Moisture  
Dew Point 36 °F    
Average Humidity 52    
Maximum Humidity 80    
Minimum Humidity 24    
Precipitation  
Precipitation 0.00 in - - ()
Sea Level Pressure  
Sea Level Pressure 30.16 in    
Wind  
Wind Speed 5 mph (WNW)    
Max Wind Speed 18 mph    
Max Gust Speed 28 mph    
Visibility 10 miles    
Events      
Averages and records for this station are not official NWS values.
T = Trace of Precipitation, MM = Missing Value Source: NWS Daily Summary

Daily Weather History Graph

Daily Weather History Graph

Search for Another Location

Airport:

Trip Planner

Search our weather history database for the weather conditions in past years. The results will help you decide how hot, cold, wet, or windy it might be!

Date:

Astronomy

Nov. 05, 2012 Rise Set
Actual Time 7:13 AM CST 6:01 PM CST
Civil Twilight 6:48 AM CST 6:26 PM CST
Nautical Twilight 6:19 AM CST 6:55 PM CST
Astronomical Twilight 5:50 AM CST 7:24 PM CST
Moon 11:40 PM CST (11/5) 12:33 PM CST (11/5)
Length of Visible Light 11h 38m
Length of Day
10h 47m
Waning Gibbous, 62% of the Moon is Illuminated
Nov 5
Waning Gibbous
Nov 6
Last Quarter
Nov 13
New
Nov 20
First Quarter
Nov 28
Full

Hourly Weather History & Observations

Time (CST) Temp. Windchill Dew Point Humidity Pressure Visibility Wind Dir Wind Speed Gust Speed Precip Events Conditions
12:15 AM 50.0 °F - 43.0 °F 77% 30.12 in 10.0 mi Calm Calm - N/A   Clear
12:35 AM 50.0 °F - 43.0 °F 77% 30.12 in 10.0 mi Calm Calm - N/A   Clear
12:55 AM 51.1 °F - 41.5 °F 70% 30.12 in 10.0 mi West 4.6 mph - N/A   Clear
1:15 AM 48.7 °F - 40.3 °F 73% 30.12 in 10.0 mi West 4.6 mph - N/A   Clear
1:35 AM 47.3 °F - 39.7 °F 75% 30.13 in 10.0 mi WSW 5.8 mph - N/A   Clear
1:55 AM 47.7 °F - 40.1 °F 75% 30.12 in 10.0 mi WSW 6.9 mph - N/A   Clear
2:15 AM 47.5 °F - 40.3 °F 76% 30.12 in 10.0 mi WSW 4.6 mph - N/A   Clear
2:35 AM 47.3 °F - 39.4 °F 74% 30.12 in 10.0 mi WSW 3.5 mph - N/A   Clear
2:55 AM 45.7 °F 44.4 °F 38.7 °F 76% 30.11 in 10.0 mi SW 3.5 mph - N/A   Clear
3:15 AM 44.8 °F 42.4 °F 37.8 °F 76% 30.11 in 10.0 mi South 4.6 mph - N/A   Clear
3:35 AM 44.6 °F 41.4 °F 37.0 °F 75% 30.11 in 10.0 mi South 5.8 mph - N/A   Clear
3:55 AM 44.1 °F - 36.7 °F 75% 30.12 in 10.0 mi Calm Calm - N/A   Clear
4:15 AM 46.6 °F - 37.2 °F 70% 30.12 in 10.0 mi Calm Calm - N/A   Clear
4:35 AM 45.1 °F - 36.7 °F 72% 30.11 in 10.0 mi Calm Calm - N/A   Clear
4:55 AM 44.8 °F - 37.0 °F 74% 30.12 in 10.0 mi Calm Calm - N/A   Clear
5:15 AM 46.8 °F - 36.9 °F 68% 30.12 in 10.0 mi NW 3.5 mph - N/A   Clear
5:35 AM 44.4 °F - 36.3 °F 73% 30.12 in 10.0 mi Calm Calm - N/A   Clear
5:55 AM 45.5 °F - 36.7 °F 71% 30.12 in 10.0 mi Calm Calm - N/A   Clear
6:15 AM 43.3 °F - 35.8 °F 75% 30.13 in 10.0 mi Calm Calm - N/A   Clear
6:35 AM 42.3 °F - 35.6 °F 77% 30.13 in 10.0 mi Calm Calm - N/A   Clear
6:55 AM 41.9 °F - 35.2 °F 77% 30.15 in 10.0 mi Calm Calm - N/A   Clear
7:15 AM 40.6 °F - 34.9 °F 80% 30.16 in 10.0 mi Calm Calm - N/A   Clear
7:35 AM 42.8 °F 39.3 °F 36.9 °F 80% 30.17 in 10.0 mi NW 5.8 mph - N/A   Clear
7:55 AM 46.9 °F - 36.0 °F 66% 30.18 in 10.0 mi WNW 6.9 mph - N/A   Clear
8:15 AM 49.5 °F - 36.9 °F 62% 30.19 in 10.0 mi WNW 5.8 mph - N/A   Clear
8:35 AM 51.8 °F - 38.5 °F 60% 30.19 in 10.0 mi NW 6.9 mph - N/A   Clear
8:55 AM 57.2 °F - 34.0 °F 42% 30.20 in 10.0 mi NW 16.1 mph - N/A   Clear
9:15 AM 58.5 °F - 29.7 °F 33% 30.21 in 10.0 mi NW 17.3 mph 24.2 mph N/A   Clear
9:35 AM 58.3 °F - 28.6 °F 32% 30.22 in 10.0 mi NW 17.3 mph 27.6 mph N/A   Clear
9:55 AM 59.0 °F - 28.2 °F 31% 30.23 in 10.0 mi NW 18.4 mph 21.9 mph N/A   Clear
10:15 AM 60.8 °F - 29.5 °F 31% 30.23 in 10.0 mi NW 15.0 mph - N/A   Clear
10:35 AM 61.5 °F - 31.8 °F 33% 30.23 in 10.0 mi WNW 13.8 mph - N/A   Clear
10:55 AM 63.0 °F - 33.4 °F 33% 30.23 in 10.0 mi NW 15.0 mph 18.4 mph N/A   Clear
11:15 AM 64.9 °F - 36.0 °F 34% 30.23 in 10.0 mi NW 17.3 mph - N/A   Clear
11:35 AM 67.1 °F - 36.9 °F 33% 30.23 in 10.0 mi NW 13.8 mph 17.3 mph N/A   Clear
12:15 PM 70.3 °F - 37.0 °F 30% 30.20 in 10.0 mi NW 11.5 mph - N/A   Clear
12:35 PM 71.4 °F - 37.4 °F 29% 30.19 in 10.0 mi WNW 13.8 mph 19.6 mph N/A   Clear
1:35 PM 73.4 °F - 36.5 °F 26% 30.16 in 10.0 mi NNW 11.5 mph 18.4 mph N/A   Clear
1:55 PM 73.9 °F - 37.0 °F 26% 30.15 in 10.0 mi North 10.4 mph - N/A   Clear
2:15 PM 73.8 °F - 36.5 °F 26% 30.14 in 10.0 mi NW 4.6 mph - N/A   Clear
2:35 PM 74.8 °F - 36.9 °F 25% 30.13 in 10.0 mi North 5.8 mph - N/A   Clear
3:55 PM 75.2 °F - 36.1 °F 24% 30.12 in 10.0 mi NNW 8.1 mph - N/A   Clear
4:35 PM 75.6 °F - 36.7 °F 24% 30.12 in 10.0 mi ENE 4.6 mph - N/A   Clear
4:55 PM 75.0 °F - 36.1 °F 24% 30.12 in 10.0 mi NE 4.6 mph - N/A   Clear
5:15 PM 73.9 °F - 36.7 °F 26% 30.13 in 10.0 mi NE 4.6 mph - N/A   Clear
5:35 PM 72.9 °F - 37.4 °F 28% 30.13 in 10.0 mi NE 4.6 mph - N/A   Clear
5:55 PM 70.7 °F - 37.9 °F 30% 30.13 in 1.2 mi East 4.6 mph - N/A   Haze
6:15 PM 67.8 °F - 37.6 °F 33% 30.14 in 10.0 mi NE 4.6 mph - N/A   Clear
6:35 PM 66.4 °F - 37.6 °F 35% 30.15 in 10.0 mi ENE 5.8 mph - N/A   Clear
6:55 PM 65.1 °F - 37.6 °F 36% 30.15 in 10.0 mi ENE 3.5 mph - N/A   Clear
7:15 PM 63.5 °F - 37.4 °F 38% 30.15 in 10.0 mi Calm Calm - N/A   Clear
7:35 PM 63.5 °F - 37.4 °F 38% 30.16 in 10.0 mi Calm Calm - N/A   Clear
7:55 PM 57.7 °F - 37.4 °F 47% 30.16 in 10.0 mi Calm Calm - N/A   Clear
8:15 PM 57.0 °F - 36.7 °F 47% 30.16 in 10.0 mi Calm Calm - N/A   Clear
8:35 PM 55.4 °F - 36.7 °F 49% 30.17 in 10.0 mi South 3.5 mph - N/A   Clear
8:55 PM 55.8 °F - 37.0 °F 49% 30.17 in 10.0 mi SSE 3.5 mph - N/A   Clear
9:15 PM 55.4 °F - 37.4 °F 51% 30.17 in 10.0 mi South 5.8 mph - N/A   Clear
9:35 PM 53.8 °F - 36.5 °F 52% 30.17 in 10.0 mi South 6.9 mph - N/A   Clear
9:55 PM 49.3 °F - 33.8 °F 55% 30.18 in 10.0 mi SSW 5.8 mph - N/A   Clear
10:15 PM 48.9 °F - 33.6 °F 56% 30.18 in 10.0 mi SSW 6.9 mph - N/A   Clear
10:35 PM 48.2 °F - 33.3 °F 56% 30.19 in 10.0 mi Calm Calm - N/A   Clear
10:55 PM 46.9 °F - 33.1 °F 59% 30.18 in 10.0 mi SSW 6.9 mph - N/A   Clear
11:15 PM 47.3 °F - 32.7 °F 57% 30.17 in 10.0 mi SSW 5.8 mph - N/A   Clear
11:35 PM 46.8 °F - 32.4 °F 57% 30.17 in 10.0 mi SSW 4.6 mph - N/A   Clear
11:55 PM 46.4 °F 43.5 °F 32.2 °F 58% 30.17 in 10.0 mi SSW 5.8 mph - N/A   Clear